[Date Prev][Date Next][Thread Prev][Thread Next] - [Date Index][Thread Index][Author Index]

STS-93 keps



STS-93      
1 25866U 99040A   99204.33501948  .00023497  23052-8  46853-4 0    26
2 25866  28.4652 197.6680 0016574 248.1106 309.6587 15.98306009    30


----
Via the sarex mailing list at AMSAT.ORG courtesy of AMSAT-NA.
To unsubscribe, send "unsubscribe sarex" to Majordomo@amsat.org



AMSAT Top AMSAT Home